x

Burns Harbor, In (bhri3) Weather Station

10:40am - Thu 29th Sep 2016 All times are CDT. -5 hours from GMT.

  • Wind
    24mph, 30mph gusts
  • Air Temp 62°f
  • Sea Pressure 1021mb
  • Burns Harbor, In
  • Burns Harbor, In

More Historic Weather Station data

Upgrade to MSW Pro to gain access to the past 30 days of data for over 8000 Wavebouys and Weather Stations around the globe.

Join Pro

Comparision Forecast

View Surf forecast
   
Thu 09/29 10:40am 24 30 mph 1021mb 62f
10:30am 25 30 mph 1021mb 62f
10:20am 24 29 mph 1020.7mb 62f
10:10am 25 29 mph 1020.7mb 62f
10:01am 24
mph
1020.7mb 62f
10:00am 24 28 mph 1020.7mb 62f
9:40am 26 29 mph 1020.3mb 62f
9:30am 24 30 mph 1020mb 62f
9:20am 28 32 mph 1020.3mb 62f
9:10am 26 34 mph 1020.3mb 62f
9:00am 30
mph
1020mb 62f
8:40am 31 37 mph 1019.6mb 62f
8:30am 31 37 mph 1019.3mb 62f
8:20am 25 31 mph 1019.3mb 62f
8:10am 26 36 mph 1019.3mb 62f
8:00am 31
mph
1019mb 62f
7:40am 28 30 mph 1019mb 62f
7:36am 24 30 mph 1019mb 61f
7:30am 23 29 mph 1019mb 61f
7:20am 25 29 mph 1019mb 62f
7:10am 15 21 mph 1019mb 62f
7:00am 18 25 mph 1019mb 62f
6:40am 23 24 mph 1019mb 62f
6:30am 23 26 mph 1019mb 62f
6:20am 22 25 mph 1019mb 62f
6:10am 23 28 mph 1019mb 62f
6:00am 23 28 mph 1018.6mb 62f
5:40am 28
mph
1018.3mb 62f
5:30am 25 29 mph 1018.3mb 62f
5:29am 25 29 mph 1018.3mb 62f
5:20am 23 25 mph 1018.3mb 61f
5:10am 23 25 mph 1018.3mb 61f
5:00am 22 26 mph 1018.3mb 61f
4:40am 23 28 mph 1017.9mb 61f
4:30am 23 28 mph 1017.9mb 61f
4:20am 22 28 mph 1017.9mb 61f
4:10am 21 25 mph 1017.9mb 61f
4:00am 23 30 mph 1017.6mb 61f
3:40am 24 28 mph 1017.3mb 62f
3:30am 25 29 mph 1017.3mb 62f
3:20am 26 30 mph 1017.3mb 62f
3:10am 28 31 mph 1017.3mb 62f
3:09am 28 30 mph 1016.9mb 62f
3:00am 28 31 mph 1016.9mb 62f
2:40am 24
mph
1016.9mb 62f
2:30am 28 32 mph 1016.6mb 62f
2:20am 28 33 mph 1016.9mb 62f
2:10am 26 31 mph 1016.9mb 62f
2:09am 25 29 mph 1016.9mb 62f
2:00am 28 32 mph 1016.6mb 62f
1:06am 24 29 mph 1016.6mb 62f
12:40am 25 28 mph 1016.9mb 62f
12:30am 21 26 mph 1016.9mb 62f
12:20am 23
mph
1016.9mb 62f
12:10am 25 30 mph 1016.9mb 61f
12:04am 23 29 mph 1016.9mb 61f
12:00am 28 31 mph 1017.3mb 61f
Wed 09/28 11:40pm 28 32 mph 1016.9mb 62f
11:30pm 24 32 mph 1017.3mb 62f
11:20pm 28 37 mph 1017.3mb 63f
11:10pm 29 32 mph 1016.9mb 63f
11:02pm 25 30 mph 1016.9mb 63f
11:00pm 23 28 mph 1016.9mb 63f
10:40pm 22 28 mph 1017.3mb 62f
10:30pm 20 24 mph 1017.3mb 62f
10:20pm 22 26 mph 1017.3mb 61f
10:10pm 23 28 mph 1016.9mb 61f
10:00pm 25
mph
1017.3mb 61f
9:40pm 23 30 mph 1016.9mb 61f
9:30pm 25 32 mph 1016.9mb 61f
9:27pm 28 29 mph 1016.9mb 61f
9:20pm 25 32 mph 1016.9mb 61f
9:10pm 28 32 mph 1016.6mb 61f
9:00pm 28 33 mph 1016.6mb 61f
8:40pm 30 33 mph 1016.6mb 61f
8:30pm 26 32 mph 1016.3mb 61f
8:27pm 28 31 mph 1016.3mb 61f
8:20pm 29 33 mph 1016.3mb 61f
8:10pm 29 36 mph 1015.9mb 62f
8:00pm 31 36 mph 1015.9mb 62f
7:40pm 28 33 mph 1015.6mb 62f
7:30pm 28 33 mph 1015.9mb 62f
7:26pm 30
mph
1015.6mb 62f
7:20pm 26 39 mph 1015.9mb 62f
7:10pm 21 32 mph 1015.6mb 62f
7:00pm 25 29 mph 1015.6mb 64f
6:40pm 22 30 mph 1015.9mb 64f
6:30pm 25 29 mph 1015.6mb 64f
6:26pm 23 29 mph 1015.2mb 63f
6:20pm 20 23 mph 1015.6mb 63f
6:10pm 13 16 mph 1015.6mb 62f
6:00pm 14 17 mph 1015.6mb 62f
5:40pm 16 18 mph 1015.6mb 62f
5:30pm 15 18 mph 1015.6mb 62f
5:20pm 15 18 mph 1015.2mb 62f
5:10pm 15 16 mph 1015.2mb 61f
5:00pm 11 14 mph 1015.2mb 61f
4:40pm 13 16 mph 1014.9mb 61f
4:30pm 13 18 mph 1014.9mb 60f
4:20pm 16 17 mph 1014.9mb 60f
4:10pm 15 17 mph 1014.6mb 60f
4:00pm 16 18 mph 1014.6mb 60f
3:40pm 15 21 mph 1014.2mb 60f
3:30pm 16 18 mph 1013.9mb 60f
3:20pm 18 21 mph 1013.9mb 60f
3:10pm 18 21 mph 1013.5mb 60f
3:00pm 16 20 mph 1013.5mb 60f
2:40pm 16 20 mph 1013.2mb 59f
2:30pm 16 22 mph 1013.2mb 60f
2:20pm 17 22 mph 1012.9mb 59f
2:10pm 17 22 mph 1012.9mb 59f
2:00pm 17 21 mph 1012.5mb 59f
1:40pm 16 21 mph 1012.5mb 59f
1:30pm 18 21 mph 1012.5mb 59f
1:20pm 18 21 mph 1012.5mb 59f
1:10pm 18 22 mph 1012.5mb 59f
1:00pm 18 24 mph 1012.2mb 59f
12:40pm 21 25 mph 1012.2mb 59f
12:30pm 22 25 mph 1011.9mb 59f
12:20pm 22 25 mph 1011.9mb 59f
12:10pm 22 24 mph 1011.9mb 59f
12:00pm 23 28 mph 1011.5mb 59f
11:40am 25 29 mph 1011.2mb 60f
11:30am 24 26 mph 1011.2mb 59f
11:20am 23 28 mph 1011.5mb 59f
11:10am 21 25 mph 1011.5mb 59f
11:00am 22 26 mph 1011.2mb 59f
10:40am 23 26 mph 1011.2mb 59f
10:30am 23 25 mph 1011.2mb 60f
10:20am 21 23 mph 1011.2mb 60f
10:10am 18 25 mph 1010.8mb 60f
10:00am 18 22 mph 1010.8mb 60f
9:40am 15 20 mph 1010.8mb 59f
9:30am 13 18 mph 1010.8mb 59f
9:20am 17 20 mph 1010.5mb 59f
9:10am 15 21 mph 1010.5mb 58f
9:00am 16 20 mph 1010.2mb 58f
8:40am 15 20 mph 1010.2mb 58f
8:30am 16 20 mph 1009.8mb 58f
8:20am 16 18 mph 1009.8mb 58f
8:10am 15 20 mph 1009.8mb 58f
8:00am 17 21 mph 1009.5mb 58f
7:40am 16 20 mph 1009.8mb 57f
7:30am 15 20 mph 1009.5mb 58f
7:20am 15 18 mph 1009.8mb 58f
7:10am 15 18 mph 1009.5mb 58f
7:00am 14 17 mph 1009.5mb 58f
6:40am 17 21 mph 1008.8mb 58f
6:30am 16 18 mph 1008.8mb 58f
6:20am 15 17 mph 1008.8mb 57f
6:10am 18 20 mph 1008.8mb 57f
6:01am 16 28 mph 1008.5mb 57f
6:00am 16 20 mph 1008.5mb 57f
5:40am 18 23 mph 1008.5mb 56f
5:30am 18 28 mph 1008.5mb 56f
5:20am 20 25 mph 1008.5mb 58f
5:10am 6 9 mph 1008.8mb 58f
5:01am 8 17 mph 1008.5mb 58f
5:00am 8 10 mph 1008.5mb 58f
4:40am 9 13 mph 1008.5mb 57f
4:30am 8 15 mph 1008.1mb 58f
4:20am 14 17 mph 1008.1mb 58f
4:10am 14 17 mph 1008.1mb 58f
4:00am 14 16 mph 1008.1mb 58f
3:40am 14 16 mph 1008.5mb 58f
3:30am 13 15 mph 1008.1mb 58f
3:20am 13 15 mph 1008.5mb 57f
3:10am 10 11 mph 1008.5mb 57f
3:00am 9 16 mph 1008.5mb 56f
2:40am 14 16 mph 1007.5mb 56f
2:30am 10 14 mph 1008.1mb 56f
2:20am 9 13 mph 1008.1mb 57f
2:10am 7 11 mph 1008.5mb 57f
2:00am 8 15 mph 1008.5mb 57f
1:40am 8 11 mph 1008.5mb 56f
1:30am 9 13 mph 1008.8mb 57f
1:20am 10 14 mph 1008.5mb 57f
1:10am 11 14 mph 1008.5mb 57f
1:00am 11 15 mph 1008.5mb 58f
12:40am 13 15 mph 1008.5mb 58f
12:30am 8 13 mph 1008.8mb 58f
12:20am 10 13 mph 1008.5mb 58f
12:10am 8 10 mph 1008.5mb 59f
12:05am 6 9 mph 1008.5mb 60f
12:00am  -  7 mph 1008.5mb 61f
Tue 09/27 11:40pm 3 9 mph 1008.5mb 58f
11:30pm 6 7 mph 1008.5mb 60f
11:20pm 6 7 mph 1008.5mb 60f
11:10pm 6 7 mph 1008.5mb 60f
11:05pm 6 11 mph 1008.5mb 60f
11:00pm 6 7 mph 1008.5mb 60f
10:40pm 5 7 mph 1008.8mb 60f
10:30pm 3 7 mph 1008.8mb 60f
10:20pm 6 8 mph 1008.8mb 60f
10:10pm 6 11 mph 1008.8mb 61f
10:05pm 7 8 mph 1008.8mb 62f
10:00pm 5 6 mph 1008.8mb 62f
9:40pm 6 7 mph 1008.8mb 65f
9:30pm 5 7 mph 1008.8mb 65f
9:20pm 6 8 mph 1008.8mb 65f
9:10pm 6 9 mph 1008.8mb 65f
9:04pm 8 16 mph 1008.8mb 65f
9:00pm 7 10 mph 1008.8mb 65f
8:40pm 10 13 mph 1008.8mb 66f
8:30pm 9 14 mph 1008.8mb 66f
8:20pm 13 16 mph 1008.8mb 67f
8:10pm 11 16 mph 1008.8mb 67f
8:04pm 11 21 mph 1008.8mb 66f
8:00pm 10 14 mph 1008.8mb 66f
7:40pm 14 20 mph 1008.8mb 67f
7:30pm 15 20 mph 1008.5mb 67f
7:20pm 13 18 mph 1008.5mb 67f
7:10pm 18 21 mph 1008.5mb 67f
7:03pm 17 25 mph 1008.5mb 67f
7:00pm 16 20 mph 1008.5mb 67f
6:40pm 17 22 mph 1008.5mb 67f
6:30pm 18 24 mph 1008.1mb 67f
6:20pm 22 25 mph 1008.1mb 68f
6:10pm 21 25 mph 1008.1mb 67f
6:03pm 21 24 mph 1007.8mb 68f
6:00pm 21 24 mph 1007.8mb 68f
5:40pm 18 24 mph 1007.8mb 68f
5:30pm 20 24 mph 1007.8mb 68f
5:20pm 17 23 mph 1007.8mb 67f
5:10pm 16 22 mph 1007.8mb 68f
5:03pm 17 26 mph 1007.8mb 68f
5:00pm 18 23 mph 1007.8mb 68f
4:40pm 18 23 mph 1007.5mb 68f
4:30pm 21 24 mph 1007.5mb 68f
4:20pm 20 24 mph 1007.8mb 67f
4:10pm 22 26 mph 1007.8mb 68f
4:02pm 22 29 mph 1007.5mb 67f
4:00pm 21 24 mph 1007.5mb 67f
3:40pm 20 23 mph 1007.8mb 67f
3:30pm 24 28 mph 1007.8mb 67f
3:20pm 17 29 mph 1007.8mb 67f
3:10pm 22 31 mph 1007.8mb 67f
3:02pm 21
mph
1007.8mb 67f
3:00pm 24 28 mph 1007.8mb 67f
2:40pm 24 28 mph 1007.8mb 67f
2:30pm 21 26 mph 1007.8mb 67f
2:20pm 22 26 mph 1007.8mb 67f
2:10pm 22 29 mph 1008.1mb 67f
2:03pm 22 29 mph 1007.8mb 67f
2:00pm 20 26 mph 1008.1mb 67f
1:40pm 22 28 mph 1008.5mb 67f
1:30pm 24 29 mph 1008.1mb 66f
1:20pm 23 28 mph 1008.5mb 66f
1:10pm 15 30 mph 1008.8mb 66f
1:01pm 22
mph
1008.5mb 65f
1:00pm 22 29 mph 1008.5mb 65f
12:40pm 23 28 mph 1008.8mb 65f
12:30pm 25 34 mph 1008.8mb 65f
12:20pm 29 34 mph 1008.8mb 65f
12:10pm 26 32 mph 1008.8mb 65f
12:00pm 28
mph
1009.1mb 64f
11:40am 24 33 mph 1009.8mb 64f
11:30am 25 33 mph 1009.8mb 64f
11:20am 26 32 mph 1009.8mb 64f
11:10am 22 29 mph 1010.2mb 63f
11:00am 22
mph
1010.2mb 63f
10:40am 22 29 mph 1010.5mb 63f
10:30am 21 24 mph 1010.8mb 63f
10:20am 20 23 mph 1010.8mb 62f
10:10am 16 24 mph 1010.8mb 62f
10:00am 17 29 mph 1011.2mb 62f
9:40am 20 24 mph 1011.2mb 61f
9:30am 18 24 mph 1011.2mb 60f
9:20am 16 20 mph 1011.2mb 60f
9:10am 14 17 mph 1011.2mb 59f
9:00am 11 16 mph 1011.2mb 59f
8:40am 15 18 mph 1010.8mb 57f
8:30am 14 17 mph 1011.2mb 57f
8:20am 13 17 mph 1011.2mb 56f
8:10am 13 15 mph 1011.2mb 56f
8:00am 10 18 mph 1011.2mb 56f
7:40am 15 20 mph 1011.2mb 57f
7:30am 14 18 mph 1011.5mb 57f
7:20am 15 18 mph 1011.5mb 57f
7:10am 14 20 mph 1011.5mb 56f
7:00am 15 20 mph 1011.5mb 56f
6:40am 15 18 mph 1011.5mb 56f
6:30am 15 17 mph 1011.5mb 56f
6:20am 15 18 mph 1011.2mb 56f
6:10am 16 20 mph 1011.5mb 57f
6:00am 17 22 mph 1011.2mb 57f
5:40am 20 23 mph 1011.2mb 56f
5:30am 18 23 mph 1011.2mb 56f
5:20am 20 26 mph 1011.5mb 56f
5:10am 17 29 mph 1011.5mb 56f
5:00am 15 20 mph 1011.2mb 56f
4:40am 18 22 mph 1011.5mb 57f
4:30am 18 23 mph 1011.5mb 57f
4:20am 15 22 mph 1011.5mb 56f
4:10am 14 20 mph 1011.5mb 56f
4:00am 15 21 mph 1011.5mb 57f
3:40am 15 21 mph 1011.9mb 57f
3:30am 15 23 mph 1011.9mb 58f
3:20am 15 23 mph 1012.2mb 57f
3:10am 16 22 mph 1012.2mb 57f
3:00am 16 21 mph 1012.2mb 57f
2:40am 14 20 mph 1012.5mb 58f
2:30am 15 21 mph 1012.9mb 58f
2:20am 15 21 mph 1012.5mb 58f
2:10am 17 21 mph 1012.9mb 59f
2:00am 14 18 mph 1012.9mb 59f
1:40am 11 17 mph 1013.2mb 60f
1:30am 15 18 mph 1012.9mb 61f
1:20am 15 20 mph 1013.2mb 61f
1:10am 17 21 mph 1013.2mb 61f
1:00am 18 22 mph 1013.2mb 61f
12:40am 17 21 mph 1013.2mb 62f
12:30am 14 18 mph 1013.5mb 61f
12:20am 14 18 mph 1013.5mb 61f
12:10am 14 18 mph 1013.5mb 62f
12:00am 14 22 mph 1013.9mb 62f
Mon 09/26 11:40pm 14 18 mph 1013.9mb 61f
11:30pm 13 17 mph 1014.2mb 61f
11:20pm 14 17 mph 1014.2mb 62f
11:10pm 14 18 mph 1014.2mb 62f
11:00pm 13 23 mph 1014.2mb 62f
10:40pm 13 16 mph 1014.2mb 62f
10:30pm 13 18 mph 1014.2mb 62f
10:20pm 13 15 mph 1014.6mb 62f
10:10pm 11 14 mph 1014.6mb 62f
10:00pm 10 15 mph 1014.6mb 62f
9:40pm 11 15 mph 1014.6mb 62f
9:30pm 9 13 mph 1014.9mb 63f
9:20pm 9 14 mph 1014.9mb 63f
9:10pm 10 14 mph 1014.9mb 64f
9:00pm 10 15 mph 1014.9mb 65f
8:40pm 13 22 mph 1014.9mb 66f
8:30pm 20 23 mph 1014.9mb 67f
8:20pm 18 23 mph 1014.6mb 67f
8:10pm 18 23 mph 1014.6mb 67f
8:04pm 18 23 mph 1014.6mb 67f
8:00pm 18 23 mph 1014.6mb 67f
7:40pm 17 23 mph 1014.6mb 67f
7:30pm 18 26 mph 1014.2mb 67f
7:20pm 22 28 mph 1014.2mb 67f
7:10pm 24 30 mph 1014.2mb 67f
7:03pm 25
mph
1014.2mb 67f
7:00pm 21 28 mph 1013.9mb 67f
6:40pm 26 33 mph 1013.9mb 68f
6:30pm 28 31 mph 1013.9mb 68f
6:20pm 25 30 mph 1013.9mb 68f
6:10pm 23 29 mph 1013.5mb 68f
6:03pm 25
mph
1013.5mb 68f
6:00pm 24 32 mph 1013.5mb 68f
5:40pm 25 30 mph 1013.5mb 68f
5:30pm 23 30 mph 1013.5mb 68f
5:20pm 25 30 mph 1013.5mb 68f
5:10pm 23 32 mph 1013.5mb 68f
5:03pm 25
mph
1013.5mb 68f
5:00pm 25 31 mph 1013.5mb 68f
4:40pm 25 30 mph 1013.9mb 68f
4:30pm 20 24 mph 1013.9mb 68f
4:20pm 22 26 mph 1013.9mb 68f
4:10pm 21 30 mph 1013.5mb 68f
4:02pm 23
mph
1013.9mb 68f
4:00pm 26 31 mph 1013.9mb 68f
3:40pm 21 29 mph 1013.9mb 67f
3:30pm 25 30 mph 1013.9mb 67f
3:20pm 25 29 mph 1014.2mb 67f
3:10pm 25 30 mph 1014.2mb 67f
3:07pm 22 30 mph 1014.2mb 67f
3:00pm 23 28 mph 1014.2mb 67f
2:40pm 23 26 mph 1014.2mb 66f
2:30pm 21 26 mph 1014.2mb 66f
2:20pm 24 28 mph 1014.6mb 66f
2:10pm 22 25 mph 1014.6mb 66f
2:01pm 22 29 mph 1014.6mb 66f
2:00pm 22 26 mph 1014.6mb 66f
1:40pm 18 25 mph 1014.6mb 66f
1:30pm 20 23 mph 1014.9mb 65f
1:20pm 21 26 mph 1014.9mb 65f
1:10pm 22 26 mph 1014.9mb 65f
1:01pm 21
mph
1015.2mb 65f
1:00pm 21 30 mph 1015.2mb 65f
12:40pm 22 26 mph 1015.6mb 65f
12:30pm 23 30 mph 1015.6mb 65f
12:20pm 26 31 mph 1015.6mb 65f
12:12pm 24 29 mph 1015.2mb 65f
12:10pm 22 29 mph 1015.2mb 65f
12:00pm 23 30 mph 1015.6mb 65f
11:40am 25 30 mph 1015.6mb 65f
11:30am 22 31 mph 1015.9mb 64f
11:20am 24 31 mph 1015.9mb 64f
11:10am 23 29 mph 1015.9mb 64f
11:04am 24 29 mph 1015.9mb 64f
11:00am 22 28 mph 1015.9mb 64f
10:40am 22 25 mph 1016.3mb 64f
10:30am 22 28 mph 1016.3mb 64f
10:20am 21 25 mph 1016.3mb 63f
10:10am 20 23 mph 1016.3mb 63f
10:00am 21 25 mph 1016.3mb 63f
9:40am 14 16 mph 1016.6mb 62f
9:30am 14 17 mph 1016.6mb 61f
9:20am 16 22 mph 1016.6mb 62f
9:10am 18 22 mph 1016.6mb 62f
9:00am 18 23 mph 1016.6mb 61f
8:40am 20 23 mph 1016.3mb 61f
8:30am 18 25 mph 1016.3mb 61f
8:20am 21 23 mph 1016.3mb 61f
8:10am 20 23 mph 1015.9mb 62f
8:01am 20 24 mph 1016.3mb 62f
8:00am 20 23 mph 1016.3mb 62f
7:40am 17 23 mph 1015.9mb 62f
7:30am 18 22 mph 1016.3mb 62f
7:20am 17 23 mph 1016.3mb 62f
7:10am 18 22 mph 1015.9mb 62f
7:00am 17 25 mph 1015.9mb 62f
6:40am 17 24 mph 1015.9mb 63f
6:30am 18 24 mph 1015.6mb 63f
6:20am 10 25 mph 1015.6mb 63f
6:10am 21 25 mph 1015.6mb 63f
6:00am 20 26 mph 1015.2mb 63f
5:40am 20 26 mph 1015.2mb 63f
5:30am 18 25 mph 1015.2mb 63f
5:20am 23 26 mph 1015.2mb 63f
5:10am 15 22 mph 1015.2mb 63f
5:00am 18 24 mph 1015.2mb 62f
4:40am 11 18 mph 1015.2mb 61f
4:30am 14 16 mph 1015.2mb 61f
4:20am 11 14 mph 1014.9mb 61f
4:10am 13 16 mph 1015.2mb 61f
4:00am 10 15 mph 1015.2mb 61f
3:40am 15 21 mph 1015.2mb 62f
3:30am 16 17 mph 1015.2mb 62f
3:20am 15 18 mph 1015.2mb 62f
3:10am 15 25 mph 1015.2mb 61f
3:00am 23
mph
1014.9mb 62f
2:40am 24 29 mph 1014.9mb 65f
2:30am 22 28 mph 1014.9mb 66f
2:20am 21 26 mph 1014.9mb 66f
2:10am 20 23 mph 1014.9mb 66f
2:00am 18 21 mph 1014.9mb 67f
1:40am 17 22 mph 1014.6mb 67f
1:30am 22 25 mph 1014.6mb 67f
1:04am 18 21 mph 1014.6mb 67f
12:40am 16 20 mph 1014.6mb 68f
12:30am 16 23 mph 1014.6mb 68f
12:20am 21 23 mph 1014.2mb 68f
12:10am 18 24 mph 1014.2mb 68f
12:04am 20
mph
1014.6mb 69f
12:00am 21 24 mph 1014.2mb 69f
Sun 09/25 11:40pm 21 26 mph 1013.9mb 70f
11:30pm 24 29 mph 1013.9mb 70f
11:29pm 23 29 mph 1013.9mb 70f
11:20pm 20 28 mph 1013.9mb 71f
11:10pm 14 16 mph 1013.9mb 71f
11:04pm 11 21 mph 1013.9mb 71f
11:00pm 15 18 mph 1013.9mb 71f
10:40pm 13 14 mph 1013.9mb 73f
10:30pm 13 16 mph 1013.9mb 74f
10:20pm 11 20 mph 1013.5mb 74f
10:10pm 16 22 mph 1013.5mb 74f
10:03pm 17 22 mph 1013.2mb 74f
10:00pm 18 21 mph 1013.5mb 74f
9:40pm 17 22 mph 1013.5mb 74f
9:30pm 16 22 mph 1013.5mb 74f
9:20pm 13 17 mph 1013.5mb 74f
9:10pm 13 16 mph 1013.2mb 75f
9:03pm 11 17 mph 1013.5mb 75f
9:00pm 13 16 mph 1013.5mb 75f
8:40pm 13 15 mph 1013.5mb 75f
8:30pm 11 15 mph 1013.5mb 75f
8:20pm 11 17 mph 1013.2mb 76f
8:10pm 9 14 mph 1013.5mb 77f
8:02pm 8 18 mph 1013.5mb 77f
8:00pm 6 15 mph 1013.5mb 77f
7:40pm 8 14 mph 1013.5mb 78f
7:30pm 8 14 mph 1013.5mb 78f
7:20pm 7 15 mph 1013.5mb 78f
7:10pm 11 18 mph 1013.5mb 79f
7:02pm 8 17 mph 1013.5mb 79f
7:00pm 9 15 mph 1013.5mb 79f
6:40pm 9 17 mph 1013.5mb 79f
6:30pm 9 17 mph 1013.2mb 79f
6:20pm 10 15 mph 1013.2mb 79f
6:10pm 10 16 mph 1013.2mb 79f
6:02pm 10 18 mph 1013.2mb 79f
6:00pm 10 16 mph 1013.2mb 79f
5:40pm 8 15 mph 1013.2mb 80f
5:30pm 11 16 mph 1013.2mb 81f
5:20pm 7 16 mph 1013.2mb 82f
5:10pm 15 18 mph 1013.5mb 81f
5:01pm 11 24 mph 1013.5mb 82f
5:00pm 11 24 mph 1013.5mb 82f